METEOR 2-8 DEB

Satellite information

Favourite Embed

Satellite Type and Status

DEBRISIN ORBIT

Key statistics

Satellite METEOR 2-8 DEB at a glance.

Uptime

15810

Days in orbit

Revolutions

≈ 14.2

Per day

Orbit

LEO

Low Earth Orbit

Inclination

82.5

Latest

Satellite identification and parameters

Extended collection of information and parameters for METEOR 2-8 DEB.

Object identification

Identified? True

Debris? True

Object name: METEOR 2-8 DEB

International designator: 1982-025U

Object number (NORAD): 36334

Object ID (CCSDS): 36334

Country: COMMONWEALTH OF INDEPENDENT STATES (CIS)

Current information (Y/N): Y

RCS size: SMALL

Orbital parameters

Period: 101.055 minutes

Inclination: 82.5139 deg

SMA: 7186.724 km

Apoapsis: 828.582 km

Periapsis: 788.596 km

RAAN: 121.3639 deg

Eccentricy: 0.0027819

Argument of periapsis: 39.6422 deg

Mean anomaly: 320.6788 deg

Mean motion: 14.2497201 rev/day

Mean motion (dot): 0.0000367 rev/day2

B* drag term: 0.0015563 1/REarth

Two-line elements (TLE)

Creation date: July 4, 2025, 6:39 p.m.

Reference frame: TEME

Reference center: EARTH

Epoch: July 4, 2025, 1:33 p.m. UTC

TLE line 0: 0 METEOR 2-8 DEB

TLE line 1: 1 36334U 82025U 25185.56504329 .00003670 00000-0 15563-2 0 9999

TLE line 2: 2 36334 82.5139 121.3639 0027819 39.6422 320.6788 14.24972010592344

Live tracking on map

Real-time ground track for satellite METEOR 2-8 DEB.

In-orbit conjunctions

A list of the most updated potential collisions computed for object METEOR 2-8 DEB.

Target Orbit TCA Probability of collision Miss distance Type
ORBCOMM FM 3 SSO 2025-05-14 07:42:23 0.0002003399 527.0 (m) PAYLOAD
DMSP 5D-2 F13 DEB SSO 2024-07-27 06:24:35 0.0002122937 76.0 (m) DEBRIS

Associated space launch

Second generation soviet meteorological satellite

METEOR 2-8 DEB was lifted into orbit during the mission ‘Tsiklon-3 | Meteor-2 8’, on board a Tsiklon-3 space rocket.

The launch took place on March 25, 1982, 9:50 a.m. from 32/1.

For more information about the launch, click the button.

Launch to space Tsiklon-3 | Meteor-2 8
Tsiklon-3 | Meteor-2 8

Agency: N/A

Status: Launch Successful

Launch date: March 25, 1982, 9:50 a.m. UTC

Rocket: Tsiklon-3

Launch pad: 32/1

Location: Plesetsk Cosmodrome, Russian Federation

...

Latest news about this satellite

There are no fresh news available about this satellite. Check back as we update our databases every day.


Newsletter sign-up

Weekly statistics, charts and insights to help you stay on top of the space industry.